User: anonymous   Login
Location: Unspecified
(0.0000°N, 0.0000°E)
Time: 17:17:19
(UTC+00:00)
Language:

DTUSAT 2 - Orbit

View from above orbital plane
View from above orbital plane
View from above satellite
View from above satellite

Ground track
Ground track

The orbit data is extracted from the following two-line orbital elements,

1 40030U 14033W   21337.08556293  .00000844  00000-0  95162-4 0  9995
2 40030  97.9247 264.3520 0011557 347.4439  12.6488 14.89202962404923
Epoch (UTC): 03 December 2021 02:03:12
Eccentricity: 0.0011557
inclination: 97.9247°
perigee height: 592 km
apogee height: 608 km
right ascension of ascending node: 264.3520°
argument of perigee: 347.4439°
revolutions per day: 14.89202962
mean anomaly at epoch: 12.6488°
orbit number at epoch: 40492

The dashed part of the orbit path shows where the satellite is in the earth's shadow,  

DLR